Regional Weather Roundup
Issued by NWS

Home | Current Version | Previous Version | Text Only | Print | Product List | Glossary Off
Versions: 1 2 3 4 5 6 7 8 9 10 11 12 13 14 15 16 17 18 19 20 21 22 23 24 25 26 27

000
ASUS45 KTFX 190910
RWRMT
MONTANA REGIONAL WEATHER ROUNDUP
NATIONAL WEATHER SERVICE GREAT FALLS MT
300 AM MDT THU APR 19 2018

NOTE: "FAIR" INDICATES FEW OR NO CLOUDS BELOW 12000 FEET WITH NO
SIGNIFICANT WEATHER AND/OR OBSTRUCTIONS TO VISIBILITY.

MTZ001>007-043-191000-
WEST OF THE DIVIDE

CITY           SKY/WX    TMP DP  RH WIND       PRES   REMARKS
MISSOULA       FAIR      35  24  64 N3        30.09F
BUTTE          FAIR      30  22  72 NE5       30.08F
MULLAN PASS    FAIR      31  19  61 SE7       30.06F WCI  24
ANACONDA         N/A     32  21  64 S5        30.09S
DEER LODGE       N/A     34  25  69 CALM      30.11S
HAMILTON         N/A     34  27  75 MISG        N/A
RONAN            N/A     32  30  93 CALM      30.12S
$$

MTZ008-052>055-191000-
SOUTHWEST MONTANA

CITY           SKY/WX    TMP DP  RH WIND       PRES   REMARKS
DILLON         FAIR      29  22  75 S5        30.06S
ENNIS          PTCLDY    25  19  80 CALM      30.11S
W YELLOWSTONE  CLOUDY    19  18  93 CALM      30.07F
THREE FORKS      N/A     31  25  78 CALM      30.07F
$$

MTZ009-010-012-014-046-048-049-054-191000-
EAST SLOPES AND CENTRAL MONTANA

CITY           SKY/WX    TMP DP  RH WIND       PRES   REMARKS
CUT BANK       FAIR      28  25  88 NE7       30.15F WCI  21
GREAT FALLS    FAIR      32  25  75 CALM      30.12F
HELENA         FAIR      35  25  66 CALM      30.11S
AUGUSTA        FAIR      30  25  80 N10       30.12F WCI  21
BOWMANS CRNR   FAIR      31  25  77 N7        30.10F WCI  24
CHOTEAU          N/A     28  25  86 NW9       30.15F WCI  20
FAIRFIELD      FAIR      28  24  84 N5        30.12F
POWER          FAIR      33  26  75 E9        30.12F WCI  25
RAYNESFORD     MOCLDY    39  22  50 E14       30.12F WCI  31
ULM            MOCLDY    33  25  75 SW3       30.13F
WHITE SULPHUR    N/A     28  23  80 SE6       30.10F WCI  22
$$

MTZ011-013-016-021-045-047-050-051-191000-
NORTH CENTRAL MONTANA

CITY           SKY/WX    TMP DP  RH WIND       PRES   REMARKS
LEWISTOWN      FAIR      37  23  56 E14       30.15F WCI  28
N BAR RANCH    MOCLDY    30  21  69 N5        30.21S
CHINOOK          N/A     36  34  93 E9        30.23S WCI  29
GEYSER         MOCLDY    33  24  71 CALM      30.14F
GRASS RANGE    FAIR      32  25  77 CALM      30.16F
STANFORD       MOCLDY    35  25  66 S6        30.14F WCI  30
$$

MTZ017>020-022>027-061-062-191000-
NORTHEAST MONTANA

CITY           SKY/WX    TMP DP  RH WIND       PRES   REMARKS
GLASGOW        FAIR      34  32  92 E16       30.29  FOG     WCI  24
GLENDIVE       MIX PCPN  31  31 100 NE12      30.31S VSB 1/4 WCI  22
JORDAN           N/A     34  31  88 E7        30.25S WCI  28
MALTA          CLEAR     39  36  87 E13       30.25F WCI  32
SIDNEY         FOG       34  32  92 E7        30.35S VSB 1/2 WCI  28
PLENTYWOOD       N/A     30  30 100 E7        30.35S VSB 1/4 WCI  23
POPLAR           N/A     32  30  93 E8        30.35S VSB 1/4 WCI  25
$$

MTZ028>42-056>058-191000-
SOUTHCENTRAL AND SOUTHEAST MONTANA

CITY           SKY/WX    TMP DP  RH WIND       PRES   REMARKS
BAKER          FAIR      28  28 100 SE6       30.29S WCI  22
BILLINGS       FAIR      39  23  52 N3        30.15S
LIVINGSTON     FAIR      34  24  67 CALM      30.12S
BIG TIMBER     PTCLDY    36  23  60 N7        30.14F WCI  30
FORSYTH          N/A     37  34  87 E8        30.23F WCI  31
HARLOWTON      FAIR      33  23  67 NE3       30.16F
LAUREL           N/A     39  23  52 NE14      30.15  WCI  31
ROUNDUP          N/A     38  22  52 NE3       30.07
$$

REGIONAL REPORTS...DAKOTAS

CITY           SKY/WX    TMP DP  RH WIND       PRES   REMARKS
WILLISTON      CLOUDY    33  32  96 N7        30.36S FOG     WCI  27
MINOT          CLOUDY    36  33  89 NW7       30.34S WCI  30
DICKINSON      FOG       23  20  88 CALM      30.31R VSB 1/4
BEACH          FAIR      28  28 100 SE5       30.34R
CROSBY         FOG       30  30 100 CALM      30.37S VSB 1/4
TIOGA          FOG       32  32 100 CALM      30.36R VSB 1/4
WATFORD CITY   CLOUDY    34  34 100 CALM      30.35R FOG
BISMARCK       FAIR      26  26 100 CALM      30.36S
GRAND FORKS    FAIR      30  30 100 CALM      30.34R
FARGO          FAIR      29  27  92 NW5       30.33R
BUFFALO SD       N/A     35  29  78 E6        30.23S WCI  30
RAPID CITY     FAIR      32  30  92 CALM      30.29S
$$

REGIONAL REPORTS...WYOMING/IDAHO/WASHINGTON

CITY           SKY/WX    TMP DP  RH WIND       PRES   REMARKS
GILLETTE       FAIR      34  25  69 SE8       30.23S WCI  27
SHERIDAN       FAIR      35  24  64 S6        30.18F WCI  30
BUFFALO WY     FAIR      35  21  56 SE7       30.21S WCI  29
CODY           FAIR      35  24  64 S5        30.13F
YELLOWSTONE LA   N/A     17  10  74 CALM      30.13F
IDAHO FALLS    FAIR      35  27  72 N9        29.99F WCI  28
SALMON         FAIR      37  26  64 CALM      30.04S
BOISE          FAIR      46  29  51 NW5       29.93S
SPOKANE        FAIR      40  29  64 NE6       30.11S
$$

REGIONAL REPORTS...ALBERTA

CITY           SKY/WX    TMP DP  RH WIND       PRES   REMARKS
CALGARY        PTCLDY    30  21  69 CALM      30.15S
CARDSTON         N/A     28  25  86 SE3         N/A
EDMONTON       CLEAR     32  18  55 SW6       30.15S WCI  26
FORT MCMURRAY  CLEAR     30  25  80 E2        30.09S
HIGH LEVEL     CLEAR     30  21  69 S5        29.89F
LETHBRIDGE     CLEAR     30  25  80 SW9       30.16F WCI  22
LLOYDMINSTER   CLEAR     32  27  80 S8        30.20S WCI  25
MEDICINE HAT   CLEAR     41  30  65 E5        30.20S
MILK RIVER       N/A     30  27  86 W1          N/A
ONEFOUR          N/A     32  30  93 E13         N/A  WCI  22
PEACE RIVER    CLEAR     30  21  69 SW7       30.04S WCI  23
PINCHER CREEK  CLEAR     27  23  86 W6        30.15S WCI  20
WATERTON GATE    N/A     28  23  80 SW5         N/A
$$

REGIONAL REPORTS...SASKATCHEWAN

CITY           SKY/WX    TMP DP  RH WIND       PRES   REMARKS
CORONACH         N/A     30  30 100 SE3         N/A
CYPRESS HILLS    N/A     30  25  80 SE10        N/A  WCI  21
ESTEVAN        FOG       30  30 100 VRB2      30.35F VSB 1/8
MOOSE JAW        N/A     27  23  86 S5          N/A
PRINCE ALBERT  PTCLDY    25  21  86 E2        30.31R
REGINA         CLEAR     25  23  93 E5        30.34S FOG
ROCKGLEN         N/A     30  28  93 S6          N/A  WCI  24
SASKATOON      PTCLDY    32  28  86 SW8       30.30R WCI  25
SWIFT CURRENT  CLEAR     32  27  80 SE12      30.26S WCI  23
VAL MARIE        N/A     30  27  86 E1          N/A
$$




USA.gov is the U.S. government's official web portal to all federal, state and local government web resources and services.